Time,TemperatureF,DewpointF,PressureIn,WindDirection,WindDirectionDegrees,WindSpeedMPH,WindSpeedGustMPH,Humidity,HourlyPrecipIn,Conditions,Clouds,dailyrainin,SoftwareType,DateUTC
2013-04-08 00:06:00,52.0,49.0,29.79,SSE,167,3.0,10.0,89,0.00,,,0.00,weatherlink.com 1.10,2013-04-08 07:06:00,
2013-04-08 00:21:00,51.9,49.0,29.78,SSE,164,5.0,7.0,90,0.00,,,0.00,weatherlink.com 1.10,2013-04-08 07:21:00,
2013-04-08 00:36:00,51.6,49.0,29.77,SSW,204,6.0,9.0,92,0.07,,,0.07,weatherlink.com 1.10,2013-04-08 07:36:00,
2013-04-08 00:51:00,51.6,50.0,29.77,South,186,3.0,13.0,93,0.08,,,0.08,weatherlink.com 1.10,2013-04-08 07:51:00,
2013-04-08 01:06:00,51.5,50.0,29.75,SSW,194,5.0,11.0,93,0.08,,,0.08,weatherlink.com 1.10,2013-04-08 08:06:00,
2013-04-08 01:21:00,51.0,49.0,29.75,WSW,244,5.0,8.0,93,0.08,,,0.08,weatherlink.com 1.10,2013-04-08 08:21:00,
2013-04-08 01:37:00,50.6,48.0,29.74,SW,225,4.0,10.0,92,0.01,,,0.08,weatherlink.com 1.10,2013-04-08 08:37:00,
2013-04-08 01:52:00,50.5,48.0,29.74,SW,232,5.0,10.0,92,0.00,,,0.08,weatherlink.com 1.10,2013-04-08 08:52:00,
2013-04-08 02:07:00,50.5,47.0,29.74,West,261,7.0,11.0,88,0.00,,,0.08,weatherlink.com 1.10,2013-04-08 09:07:00,
2013-04-08 02:22:00,49.9,47.0,29.75,WSW,254,6.0,8.0,89,0.00,,,0.08,weatherlink.com 1.10,2013-04-08 09:22:00,
2013-04-08 02:37:00,48.7,46.0,29.75,West,273,3.0,9.0,90,0.00,,,0.08,weatherlink.com 1.10,2013-04-08 09:37:00,
2013-04-08 02:52:00,47.9,45.0,29.75,WNW,298,3.0,7.0,90,0.00,,,0.08,weatherlink.com 1.10,2013-04-08 09:52:00,
2013-04-08 03:07:00,47.8,44.0,29.75,West,272,4.0,7.0,87,0.00,,,0.08,weatherlink.com 1.10,2013-04-08 10:07:00,
2013-04-08 03:22:00,47.6,44.0,29.75,West,271,5.0,7.0,87,0.00,,,0.08,weatherlink.com 1.10,2013-04-08 10:22:00,
2013-04-08 03:37:00,47.9,44.0,29.76,WNW,286,4.0,8.0,87,0.00,,,0.08,weatherlink.com 1.10,2013-04-08 10:37:00,
2013-04-08 03:52:00,48.1,45.0,29.78,West,275,5.0,9.0,88,0.00,,,0.08,weatherlink.com 1.10,2013-04-08 10:52:00,
2013-04-08 04:07:00,48.5,44.0,29.78,West,280,6.0,13.0,85,0.00,,,0.08,weatherlink.com 1.10,2013-04-08 11:07:00,
2013-04-08 04:22:00,47.9,44.0,29.78,WNW,302,6.0,10.0,87,0.00,,,0.08,weatherlink.com 1.10,2013-04-08 11:22:00,
2013-04-08 04:37:00,49.1,45.0,29.79,NW,307,6.0,19.0,86,0.00,,,0.08,weatherlink.com 1.10,2013-04-08 11:37:00,
2013-04-08 04:52:00,49.2,45.0,29.79,NW,314,9.0,14.0,84,0.00,,,0.08,weatherlink.com 1.10,2013-04-08 11:52:00,
2013-04-08 05:07:00,49.6,44.0,29.80,NW,317,10.0,16.0,81,0.00,,,0.08,weatherlink.com 1.10,2013-04-08 12:07:00,
2013-04-08 05:22:00,49.4,44.0,29.80,NW,321,9.0,16.0,80,0.00,,,0.08,weatherlink.com 1.10,2013-04-08 12:22:00,
2013-04-08 05:37:00,48.9,44.0,29.80,WNW,294,4.0,15.0,84,0.00,,,0.08,weatherlink.com 1.10,2013-04-08 12:37:00,
2013-04-08 05:52:00,49.1,44.0,29.80,WNW,299,10.0,17.0,81,0.00,,,0.08,weatherlink.com 1.10,2013-04-08 12:52:00,
2013-04-08 06:07:00,49.2,43.0,29.80,WNW,302,6.0,18.0,78,0.00,,,0.08,weatherlink.com 1.10,2013-04-08 13:07:00,
2013-04-08 06:22:00,48.7,41.0,29.81,NW,311,6.0,15.0,76,0.00,,,0.08,weatherlink.com 1.10,2013-04-08 13:22:00,
2013-04-08 06:37:00,48.7,40.0,29.82,NW,320,7.0,20.0,73,0.00,,,0.08,weatherlink.com 1.10,2013-04-08 13:37:00,
2013-04-08 06:52:00,48.5,39.0,29.83,NW,324,10.0,18.0,71,0.00,,,0.08,weatherlink.com 1.10,2013-04-08 13:52:00,
2013-04-08 07:08:00,48.8,38.0,29.83,WNW,302,17.0,21.0,67,0.00,,,0.08,weatherlink.com 1.10,2013-04-08 14:08:00,
2013-04-08 07:22:00,49.5,37.0,29.84,NW,309,12.0,23.0,63,0.00,,,0.08,weatherlink.com 1.10,2013-04-08 14:22:00,
2013-04-08 07:37:00,50.3,37.0,29.85,NW,317,17.0,24.0,61,0.00,,,0.08,weatherlink.com 1.10,2013-04-08 14:37:00,
2013-04-08 07:53:00,50.6,37.0,29.86,NNW,330,12.0,23.0,61,0.00,,,0.08,weatherlink.com 1.10,2013-04-08 14:53:00,
2013-04-08 08:08:00,51.6,36.0,29.86,NW,316,16.0,25.0,56,0.00,,,0.08,weatherlink.com 1.10,2013-04-08 15:08:00,
2013-04-08 08:23:00,52.2,35.0,29.86,NNW,334,14.0,30.0,53,0.00,,,0.08,weatherlink.com 1.10,2013-04-08 15:23:00,
2013-04-08 08:38:00,53.0,36.0,29.86,NW,322,18.0,27.0,53,0.00,,,0.08,weatherlink.com 1.10,2013-04-08 15:38:00,
2013-04-08 08:53:00,53.5,35.0,29.87,NW,325,20.0,35.0,50,0.00,,,0.08,weatherlink.com 1.10,2013-04-08 15:53:00,
2013-04-08 09:08:00,54.2,36.0,29.87,NW,316,13.0,31.0,51,0.00,,,0.08,weatherlink.com 1.10,2013-04-08 16:08:00,
2013-04-08 09:23:00,54.5,35.0,29.88,NNW,327,25.0,33.0,48,0.00,,,0.08,weatherlink.com 1.10,2013-04-08 16:23:00,
2013-04-08 09:38:00,55.0,36.0,29.87,NW,315,13.0,36.0,49,0.00,,,0.08,weatherlink.com 1.10,2013-04-08 16:38:00,
2013-04-08 09:53:00,55.5,37.0,29.88,NNW,339,18.0,39.0,50,0.00,,,0.08,weatherlink.com 1.10,2013-04-08 16:53:00,
2013-04-08 10:08:00,56.4,36.0,29.88,NW,311,29.0,33.0,47,0.00,,,0.08,weatherlink.com 1.10,2013-04-08 17:08:00,
2013-04-08 10:23:00,56.8,36.0,29.89,NNW,329,20.0,34.0,46,0.00,,,0.08,weatherlink.com 1.10,2013-04-08 17:23:00,
2013-04-08 11:09:00,58.9,35.0,29.90,NNW,337,29.0,33.0,41,0.00,,,0.08,weatherlink.com 1.10,2013-04-08 18:09:00,
2013-04-08 11:24:00,59.2,37.0,29.90,NNW,327,11.0,34.0,44,0.00,,,0.08,weatherlink.com 1.10,2013-04-08 18:24:00,
2013-04-08 11:39:00,59.9,37.0,29.90,NNW,336,23.0,30.0,43,0.00,,,0.08,weatherlink.com 1.10,2013-04-08 18:39:00,
2013-04-08 11:54:00,60.7,37.0,29.90,NNW,338,19.0,31.0,42,0.00,,,0.08,weatherlink.com 1.10,2013-04-08 18:54:00,
2013-04-08 12:09:00,60.8,37.0,29.91,NW,324,15.0,32.0,42,0.00,,,0.08,weatherlink.com 1.10,2013-04-08 19:09:00,
2013-04-08 12:24:00,61.2,34.0,29.90,NNW,327,23.0,32.0,36,0.00,,,0.08,weatherlink.com 1.10,2013-04-08 19:24:00,
2013-04-08 12:54:00,62.3,37.0,29.90,NNW,331,16.0,27.0,39,0.00,,,0.08,weatherlink.com 1.10,2013-04-08 19:54:00,
2013-04-08 13:09:00,62.5,35.0,29.90,NW,326,21.0,27.0,36,0.00,,,0.08,weatherlink.com 1.10,2013-04-08 20:09:00,
2013-04-08 13:24:00,63.3,35.0,29.90,NW,308,21.0,28.0,35,0.00,,,0.08,weatherlink.com 1.10,2013-04-08 20:24:00,
2013-04-08 13:39:00,63.5,35.0,29.90,NNW,340,16.0,32.0,35,0.00,,,0.08,weatherlink.com 1.10,2013-04-08 20:39:00,
2013-04-08 13:54:00,64.3,37.0,29.89,NNW,331,18.0,30.0,36,0.00,,,0.08,weatherlink.com 1.10,2013-04-08 20:54:00,
2013-04-08 14:09:00,64.3,37.0,29.89,NW,315,16.0,30.0,37,0.00,,,0.08,weatherlink.com 1.10,2013-04-08 21:09:00,
2013-04-08 14:24:00,64.6,37.0,29.89,NW,311,17.0,30.0,36,0.00,,,0.08,weatherlink.com 1.10,2013-04-08 21:24:00,
2013-04-08 14:39:00,65.2,37.0,29.89,NNW,327,16.0,25.0,35,0.00,,,0.08,weatherlink.com 1.10,2013-04-08 21:39:00,
2013-04-08 14:54:00,65.3,36.0,29.89,NNW,348,19.0,26.0,34,0.00,,,0.08,weatherlink.com 1.10,2013-04-08 21:54:00,
2013-04-08 15:09:00,65.9,37.0,29.89,NW,323,22.0,27.0,34,0.00,,,0.08,weatherlink.com 1.10,2013-04-08 22:09:00,
2013-04-08 15:24:00,66.3,35.0,29.88,WNW,303,16.0,26.0,32,0.00,,,0.08,weatherlink.com 1.10,2013-04-08 22:24:00,
2013-04-08 15:39:00,66.5,34.0,29.89,NNW,328,13.0,26.0,30,0.00,,,0.08,weatherlink.com 1.10,2013-04-08 22:39:00,
2013-04-08 15:54:00,67.0,36.0,29.88,NW,322,11.0,22.0,32,0.00,,,0.08,weatherlink.com 1.10,2013-04-08 22:54:00,
2013-04-08 16:09:00,66.9,35.0,29.88,NW,314,23.0,27.0,31,0.00,,,0.08,weatherlink.com 1.10,2013-04-08 23:09:00,
2013-04-08 16:24:00,67.2,34.0,29.88,NW,309,15.0,27.0,29,0.00,,,0.08,weatherlink.com 1.10,2013-04-08 23:24:00,
2013-04-08 16:39:00,66.8,33.0,29.88,WNW,300,12.0,32.0,29,0.00,,,0.08,weatherlink.com 1.10,2013-04-08 23:39:00,
2013-04-08 16:54:00,67.0,33.0,29.88,NW,325,26.0,27.0,28,0.00,,,0.08,weatherlink.com 1.10,2013-04-08 23:54:00,
2013-04-08 17:09:00,67.0,34.0,29.89,WNW,298,17.0,26.0,29,0.00,,,0.08,weatherlink.com 1.10,2013-04-09 00:09:00,
2013-04-08 17:24:00,67.1,33.0,29.89,NNW,342,17.0,24.0,28,0.00,,,0.08,weatherlink.com 1.10,2013-04-09 00:24:00,
2013-04-08 17:39:00,66.8,33.0,29.89,NW,313,16.0,25.0,28,0.00,,,0.08,weatherlink.com 1.10,2013-04-09 00:39:00,
2013-04-08 17:54:00,66.6,31.0,29.89,NW,313,23.0,26.0,27,0.00,,,0.08,weatherlink.com 1.10,2013-04-09 00:54:00,
2013-04-08 18:10:00,66.4,31.0,29.89,NNW,331,13.0,26.0,27,0.00,,,0.08,weatherlink.com 1.10,2013-04-09 01:10:00,
2013-04-08 18:25:00,66.1,32.0,29.89,NW,317,8.0,19.0,28,0.00,,,0.08,weatherlink.com 1.10,2013-04-09 01:25:00,
2013-04-08 18:40:00,65.9,31.0,29.90,North,355,14.0,20.0,27,0.00,,,0.08,weatherlink.com 1.10,2013-04-09 01:40:00,
2013-04-08 18:55:00,65.5,32.0,29.90,NW,311,8.0,17.0,29,0.00,,,0.08,weatherlink.com 1.10,2013-04-09 01:55:00,
2013-04-08 19:10:00,64.5,33.0,29.91,NW,322,7.0,17.0,31,0.00,,,0.08,weatherlink.com 1.10,2013-04-09 02:10:00,
2013-04-08 19:25:00,63.2,33.0,29.91,NW,311,5.0,11.0,32,0.00,,,0.08,weatherlink.com 1.10,2013-04-09 02:25:00,
2013-04-08 19:40:00,61.7,33.0,29.91,NNW,327,5.0,10.0,34,0.00,,,0.08,weatherlink.com 1.10,2013-04-09 02:40:00,
2013-04-08 19:55:00,60.4,34.0,29.92,WNW,300,5.0,9.0,38,0.00,,,0.08,weatherlink.com 1.10,2013-04-09 02:55:00,
2013-04-08 20:10:00,59.1,36.0,29.92,WNW,291,3.0,9.0,42,0.00,,,0.08,weatherlink.com 1.10,2013-04-09 03:10:00,
2013-04-08 20:25:00,58.2,34.0,29.93,NW,326,7.0,12.0,40,0.00,,,0.08,weatherlink.com 1.10,2013-04-09 03:25:00,
2013-04-08 20:40:00,60.5,34.0,29.94,NW,312,10.0,16.0,37,0.00,,,0.08,weatherlink.com 1.10,2013-04-09 03:40:00,
2013-04-08 20:55:00,59.9,34.0,29.94,NW,325,8.0,13.0,38,0.00,,,0.08,weatherlink.com 1.10,2013-04-09 03:55:00,
2013-04-08 21:10:00,59.6,34.0,29.95,NNW,332,7.0,13.0,39,0.00,,,0.08,weatherlink.com 1.10,2013-04-09 04:10:00,
2013-04-08 21:25:00,60.2,34.0,29.95,NW,314,6.0,17.0,37,0.00,,,0.08,weatherlink.com 1.10,2013-04-09 04:25:00,
2013-04-08 21:40:00,60.4,34.0,29.96,NNW,348,12.0,18.0,38,0.00,,,0.08,weatherlink.com 1.10,2013-04-09 04:40:00,
2013-04-08 21:55:00,60.4,34.0,29.97,NNW,339,10.0,19.0,38,0.00,,,0.08,weatherlink.com 1.10,2013-04-09 04:55:00,
2013-04-08 22:10:00,60.2,34.0,29.97,North,355,12.0,23.0,37,0.00,,,0.08,weatherlink.com 1.10,2013-04-09 05:10:00,
2013-04-08 22:25:00,59.9,34.0,29.98,North,351,12.0,18.0,38,0.00,,,0.08,weatherlink.com 1.10,2013-04-09 05:25:00,
2013-04-08 22:40:00,59.4,35.0,29.98,NW,317,16.0,18.0,40,0.00,,,0.08,weatherlink.com 1.10,2013-04-09 05:40:00,
2013-04-08 22:55:00,59.2,34.0,29.98,NNW,342,14.0,19.0,39,0.00,,,0.08,weatherlink.com 1.10,2013-04-09 05:55:00,
2013-04-08 23:10:00,59.0,34.0,29.99,NW,309,13.0,21.0,39,0.00,,,0.08,weatherlink.com 1.10,2013-04-09 06:10:00,
2013-04-08 23:25:00,58.1,35.0,29.99,NNW,340,7.0,16.0,42,0.00,,,0.08,weatherlink.com 1.10,2013-04-09 06:25:00,
2013-04-08 23:40:00,57.5,35.0,29.99,NNW,331,10.0,17.0,43,0.00,,,0.08,weatherlink.com 1.10,2013-04-09 06:40:00,
2013-04-08 23:55:00,56.8,35.0,30.00,NNW,342,8.0,14.0,44,0.00,,,0.08,weatherlink.com 1.10,2013-04-09 06:55:00,